Bay City, TX

3:56 PM CDT on May 26, 2018 (GMT -0500)
Bay City

Weather History for KBYY - September, 2013

Change the Weather History Date:

Wednesday, September 11, 2013

  Actual Average (KLBX) Record (KLBX)
Temperature  
Mean Temperature 80 °F -  
Max Temperature 87 °F 87 °F 98 °F (2011)
Min Temperature 73 °F 70 °F 62 °F (2012)
Cooling Degree Days 15    
Growing Degree Days 30 (Base 50)    
Moisture  
Dew Point 76 °F    
Average Humidity 88    
Maximum Humidity 96    
Minimum Humidity 71    
Precipitation  
Precipitation 0.69 in - - ()
Sea Level Pressure  
Sea Level Pressure 30.03 in    
Wind  
Wind Speed 5 mph (ENE)    
Max Wind Speed 16 mph    
Max Gust Speed 36 mph    
Visibility 8 miles    
Events Rain    
Averages and records for this station are not official NWS values.
T = Trace of Precipitation, MM = Missing Value Source: NWS Daily Summary

Daily Weather History Graph

Daily Weather History Graph

Search for Another Location

Airport or City:

Astronomy

Sep. 11, 2013 Rise Set
Actual Time 7:06 AM CDT 7:32 PM CDT
Civil Twilight 6:42 AM CDT 7:56 PM CDT
Nautical Twilight 6:14 AM CDT 8:24 PM CDT
Astronomical Twilight 5:46 AM CDT 8:52 PM CDT
Moon 1:05 PM CDT (9/11) No Moon Set
Length of Visible Light 13h 14m
Length of Day
12h 26m
Waxing Crescent, 39% of the Moon is Illuminated
Sep 11
Waxing Crescent
Sep 12
First Quarter
Sep 19
Full
Sep 26
Last Quarter
Oct 4
New

Hourly Weather History & Observations

Time (CDT) Temp. Heat Index Dew Point Humidity Pressure Visibility Wind Dir Wind Speed Gust Speed Precip Events Conditions
12:15 AM 76.5 °F - 74.7 °F 94% 30.03 in 10.0 mi ENE 3.5 mph - N/A   Scattered Clouds
12:35 AM 76.5 °F - 74.7 °F 94% 30.03 in 7.0 mi NE 3.5 mph - N/A   Clear
12:55 AM 76.5 °F - 74.5 °F 94% 30.03 in 10.0 mi NE 3.5 mph - N/A   Clear
1:15 AM 76.1 °F - 74.3 °F 94% 30.02 in 7.0 mi NE 4.6 mph - N/A   Clear
1:35 AM 75.7 °F - 74.3 °F 95% 30.03 in 7.0 mi ENE 4.6 mph - N/A   Clear
1:55 AM 75.7 °F - 74.1 °F 95% 30.02 in 7.0 mi ENE 3.5 mph - N/A   Clear
2:15 AM 75.4 °F - 73.9 °F 95% 30.02 in 7.0 mi ENE 4.6 mph - N/A   Clear
2:35 AM 75.4 °F - 74.1 °F 96% 30.02 in 7.0 mi ENE 3.5 mph - N/A   Clear
2:55 AM 75.4 °F - 74.1 °F 96% 30.02 in 7.0 mi Calm Calm - N/A   Clear
3:15 AM 75.6 °F - 74.3 °F 96% 30.02 in 7.0 mi NE 3.5 mph - N/A   Clear
3:35 AM 75.6 °F - 74.3 °F 96% 30.01 in 5.0 mi NE 3.5 mph - N/A   Clear
3:55 AM 75.0 °F - 73.8 °F 96% 30.02 in 5.0 mi NE 4.6 mph - N/A   Clear
4:15 AM 74.8 °F - 73.8 °F 96% 30.02 in 7.0 mi NE 3.5 mph - N/A   Clear
4:35 AM 74.8 °F - 73.6 °F 96% 30.01 in 5.0 mi NE 4.6 mph - N/A   Clear
4:55 AM 74.5 °F - 73.4 °F 96% 30.01 in 5.0 mi NE 4.6 mph - N/A   Clear
5:15 AM 74.7 °F - 73.6 °F 96% 30.01 in 5.0 mi NE 4.6 mph - N/A   Clear
5:35 AM 74.5 °F - 73.4 °F 96% 30.01 in 5.0 mi NE 4.6 mph - N/A   Clear
5:55 AM 74.3 °F - 73.2 °F 96% 30.01 in 7.0 mi NE 4.6 mph - N/A   Clear
6:15 AM 74.3 °F - 73.0 °F 96% 30.02 in 7.0 mi NE 5.8 mph - N/A   Clear
6:35 AM 74.3 °F - 72.9 °F 95% 30.02 in 7.0 mi NE 4.6 mph - N/A   Clear
6:55 AM 73.9 °F - 72.7 °F 96% 30.03 in 5.0 mi NNE 4.6 mph - N/A   Clear
7:15 AM 73.9 °F - 72.7 °F 96% 30.03 in 5.0 mi NNE 3.5 mph - N/A   Clear
7:35 AM 74.3 °F - 73.0 °F 96% 30.03 in 5.0 mi NNE 3.5 mph - N/A   Clear
7:55 AM 75.2 °F - 73.8 °F 95% 30.03 in 7.0 mi NE 3.5 mph - N/A   Clear
8:15 AM 76.5 °F - 74.5 °F 94% 30.03 in 7.0 mi NE 5.8 mph - N/A   Clear
8:35 AM 77.7 °F - 75.2 °F 92% 30.04 in 10.0 mi NE 6.9 mph - N/A   Clear
8:55 AM 79.5 °F - 76.1 °F 89% 30.05 in 10.0 mi NE 6.9 mph - N/A   Clear
9:15 AM 81.5 °F 89.0 °F 77.0 °F 86% 30.05 in 10.0 mi NE 5.8 mph - N/A   Clear
9:35 AM 83.7 °F 93.8 °F 77.7 °F 82% 30.06 in 10.0 mi ENE 6.9 mph - N/A   Clear
9:55 AM 85.3 °F 96.7 °F 77.9 °F 78% 30.06 in 10.0 mi ENE 6.9 mph - N/A   Clear
10:15 AM 86.2 °F 98.8 °F 78.3 °F 77% 30.06 in 10.0 mi ENE 6.9 mph - N/A   Clear
10:35 AM 86.9 °F 99.3 °F 77.7 °F 74% 30.07 in 10.0 mi East 10.4 mph - N/A   Scattered Clouds
10:55 AM 87.3 °F 99.8 °F 77.5 °F 73% 30.07 in 10.0 mi ENE 9.2 mph - N/A   Mostly Cloudy
11:15 AM 87.3 °F 99.3 °F 77.2 °F 72% 30.07 in 10.0 mi ENE 10.4 mph - N/A   Mostly Cloudy
11:35 AM 77.0 °F - 73.8 °F 90% 30.07 in 1.2 mi South 4.6 mph 35.7 mph 0.16 in Rain Heavy Rain
11:55 AM 81.3 °F 87.2 °F 74.5 °F 80% 30.08 in 10.0 mi ENE 16.1 mph 21.9 mph 0.22 in Rain Light Rain
12:15 PM 81.1 °F 87.2 °F 75.2 °F 82% 30.07 in 5.0 mi East 6.9 mph - 0.10 in Rain Rain
12:35 PM 80.2 °F 85.7 °F 75.7 °F 86% 30.06 in 7.0 mi ENE 6.9 mph - 0.41 in Rain Light Rain
12:55 PM 80.6 °F 86.6 °F 75.9 °F 86% 30.06 in 10.0 mi NE 4.6 mph - 0.41 in   Scattered Clouds
1:15 PM 80.8 °F 86.9 °F 75.9 °F 85% 30.06 in 7.0 mi South 10.4 mph - N/A Rain Rain
1:35 PM 78.4 °F - 74.3 °F 87% 30.06 in 7.0 mi SE 13.8 mph - 0.05 in   Overcast
1:55 PM 80.2 °F 85.8 °F 76.1 °F 87% 30.05 in 10.0 mi Calm Calm - 0.06 in   Scattered Clouds
2:15 PM 81.3 °F 89.2 °F 77.7 °F 89% 30.04 in 10.0 mi Calm Calm - N/A   Clear
2:35 PM 81.9 °F 90.5 °F 77.9 °F 88% 30.04 in 10.0 mi Calm Calm - N/A   Clear
2:55 PM 82.2 °F 91.6 °F 78.3 °F 88% 30.03 in 10.0 mi ESE 3.5 mph - N/A   Scattered Clouds
3:15 PM 82.8 °F 92.6 °F 78.3 °F 86% 30.02 in 10.0 mi ESE 4.6 mph - N/A   Clear
3:35 PM 84.2 °F 94.9 °F 77.9 °F 81% 30.02 in 10.0 mi ESE 4.6 mph - N/A   Clear
3:55 PM 86.0 °F 98.3 °F 78.1 °F 77% 30.01 in 10.0 mi ESE 5.8 mph - N/A   Clear
4:15 PM 87.1 °F 99.8 °F 78.1 °F 74% 30.01 in 10.0 mi East 5.8 mph - N/A   Clear
4:35 PM 87.1 °F 99.3 °F 77.5 °F 73% 30.01 in 10.0 mi East 9.2 mph - N/A   Clear
4:55 PM 87.6 °F 101.4 °F 78.3 °F 74% 30.00 in 10.0 mi East 6.9 mph - N/A   Scattered Clouds
5:15 PM 87.3 °F 99.8 °F 77.5 °F 73% 29.99 in 10.0 mi East 12.7 mph - N/A   Scattered Clouds
5:35 PM 87.8 °F 100.2 °F 77.2 °F 71% 29.99 in 10.0 mi East 12.7 mph - N/A   Scattered Clouds
5:55 PM 87.6 °F 99.7 °F 77.2 °F 71% 29.99 in 10.0 mi East 10.4 mph - N/A   Scattered Clouds
6:15 PM 87.4 °F 99.8 °F 77.4 °F 72% 29.99 in 10.0 mi East 8.1 mph - N/A   Scattered Clouds
6:35 PM 86.7 °F 98.3 °F 77.0 °F 73% 29.99 in 10.0 mi East 8.1 mph - N/A   Scattered Clouds
6:55 PM 84.9 °F 95.3 °F 77.2 °F 77% 29.99 in 10.0 mi East 8.1 mph - N/A   Scattered Clouds
7:15 PM 84.0 °F 93.7 °F 76.8 °F 79% 29.99 in 10.0 mi East 5.8 mph - N/A   Scattered Clouds
7:35 PM 82.6 °F 91.1 °F 77.0 °F 83% 29.99 in 10.0 mi East 4.6 mph - N/A   Clear
7:55 PM 81.0 °F 87.7 °F 76.6 °F 87% 30.00 in 10.0 mi ENE 4.6 mph - N/A   Clear
8:15 PM 79.9 °F - 76.3 °F 89% 30.00 in 10.0 mi East 5.8 mph - N/A   Clear
8:35 PM 79.7 °F - 75.9 °F 88% 30.01 in 10.0 mi East 4.6 mph - N/A   Clear
8:55 PM 79.0 °F - 75.6 °F 89% 30.01 in 10.0 mi NE 4.6 mph - N/A   Clear
9:15 PM 78.6 °F - 75.6 °F 90% 30.02 in 10.0 mi NE 4.6 mph - N/A   Clear
9:35 PM 78.1 °F - 75.4 °F 91% 30.02 in 10.0 mi ENE 3.5 mph - N/A   Clear
9:55 PM 77.2 °F - 75.2 °F 94% 30.02 in 7.0 mi NE 3.5 mph - N/A   Clear
10:15 PM 77.2 °F - 75.2 °F 94% 30.02 in 10.0 mi NE 3.5 mph - N/A   Clear
10:35 PM 76.8 °F - 75.2 °F 95% 30.02 in 7.0 mi Calm Calm - N/A   Clear
10:55 PM 76.5 °F - 74.8 °F 95% 30.02 in 7.0 mi NE 3.5 mph - N/A   Clear
11:15 PM 76.1 °F - 74.5 °F 95% 30.02 in 7.0 mi NE 3.5 mph - N/A   Clear
11:35 PM 76.1 °F - 74.5 °F 95% 30.02 in 7.0 mi Calm Calm - N/A   Clear
11:55 PM 76.1 °F - 74.5 °F 95% 30.02 in 7.0 mi Calm Calm - N/A   Clear